Location: Bannatyne
(13.0833°N, 59.5333°W)
Time: 14:32:09
(UTC+00:00)

Tiros 1 - Visible Passes

Search period start: 26 January 2020 00:00
Search period end: 05 February 2020 00:00
Orbit: 630 x 664 km, 48.4° (Epoch: 25 January)

Date Brightness Start Highest point End Pass type
(mag) Time Alt. Az. Time Alt. Az. Time Alt. Az.
26 Jan 8.6 23:13:56 10° NNW 23:16:34 23° NNE 23:16:34 23° NNE visible
27 Jan 7.4 23:39:15 10° NW 23:43:11 59° NNW 23:43:11 59° NNW visible
28 Jan 8.3 22:24:01 10° N 22:27:53 24° NE 22:31:45 10° E visible
29 Jan 8.8 00:05:46 10° WNW 00:09:59 31° SW 00:10:19 31° SW visible
29 Jan 7.1 22:49:13 10° NW 22:53:59 72° NE 22:58:47 10° SE visible
30 Jan 8.8 23:15:35 10° WNW 23:19:56 35° SW 23:24:18 10° SSE visible
31 Jan 10.4 23:44:31 10° WSW 23:45:50 11° SW 23:47:10 10° SW visible
01 Feb 8.8 22:25:26 10° WNW 22:29:53 39° SW 22:34:22 10° SSE visible
02 Feb 10.3 22:53:44 10° WSW 22:55:47 13° SW 22:57:51 10° SSW visible
03 Feb 10.4 09:31:19 10° SE 09:32:47 11° SE 09:34:16 10° ESE visible
04 Feb 8.8 09:54:26 10° SSW 09:58:41 37° SE 10:02:56 10° ENE visible
